Location: Unspecified
(43.8044°N, 11.0278°E)
Time: 20:22:13
(UTC+02:00)

Cosmos 1674 - Visible Passes

Search period start: 23 September 2017 00:00
Search period end: 03 October 2017 00:00
Orbit: 498 x 523 km, 82.5° (Epoch: 23 September)

Date Brightness Start Highest point End Pass type
(mag) Time Alt. Az. Time Alt. Az. Time Alt. Az.
23 Sep 3.4 20:51:47 10° N 20:54:41 36° NE 20:54:41 36° NE visible
23 Sep 5.8 22:28:45 10° WNW 22:29:35 12° WNW 22:29:35 12° WNW visible
24 Sep 3.4 20:35:11 10° N 20:38:24 31° ENE 20:38:24 31° ENE visible
24 Sep 5.5 22:11:29 10° NW 22:13:19 16° WNW 22:13:19 16° WNW visible
25 Sep 3.7 20:18:37 10° NNE 20:21:46 25° ENE 20:22:10 25° E visible
25 Sep 5.1 21:54:23 10° NW 21:57:06 21° W 21:57:06 21° W visible
26 Sep 4.0 20:02:07 10° NNE 20:04:57 20° ENE 20:06:02 18° E visible
26 Sep 4.6 21:37:23 10° NNW 21:40:33 26° W 21:40:57 25° WSW visible
27 Sep 4.3 19:45:42 10° NNE 19:48:08 16° ENE 19:49:57 12° ESE visible
27 Sep 4.2 21:20:28 10° NNW 21:23:51 33° W 21:24:53 28° SW visible
28 Sep 4.5 19:29:28 10° NE 19:31:18 13° ENE 19:33:06 10° E visible
28 Sep 3.8 21:03:35 10° NNW 21:07:09 43° W 21:08:58 24° SSW visible
29 Sep 3.2 20:46:45 10° NNW 20:50:25 56° W 20:53:10 16° S visible
30 Sep 2.8 20:29:57 10° NNW 20:33:41 74° W 20:37:24 10° S visible
01 Oct 2.5 20:13:11 10° N 20:16:56 85° E 20:20:40 10° S visible
02 Oct 2.5 19:56:27 10° N 20:00:11 65° E 20:03:53 10° SSE visible
